CW3518 Weather Reports


time (UTC)temp
F
wind
direction
speed
knots
gust
knots
rain 1hr
in
rain 24hr
in
rain mn
in
humidity
%
barometer
mb
20260506112459 50 10 7.8 13.9 0.00 0.00 0.00 94 1013.2
20260506111958 50 8 12.2 13.9 0.00 0.00 0.00 93 1013.1
20260506110958 50 3 7.8 17.4 0.00 0.00 0.00 93 1012.8
20260506110458 50 1 12.2 17.4 0.00 0.00 0.00 92 1013.0
20260506105959 50 359 12.2 16.5 0.00 0.00 0.00 92 1013.0
20260506105458 50 0 12.2 17.4 0.00 0.00 0.00 91 1012.8
20260506104958 51 357 10.4 18.2 0.00 0.00 0.00 89 1012.7
20260506104458 51 353 15.6 18.2 0.00 0.00 0.00 87 1012.7
20260506104029 51 357 13.0 17.4 0.00 0.00 0.00 86 1012.5
20260506103458 52 346 9.6 14.8 0.00 0.00 0.00 82 1012.6
20260506102959 52 6 8.7 14.8 0.00 0.00 0.00 81 1012.7
20260506102459 53 13 9.6 14.8 0.00 0.00 0.00 80 1012.5
20260506101959 53 358 13.9 15.6 0.00 0.00 0.00 79 1012.4
20260506100958 53 5 11.3 13.9 0.00 0.00 0.00 78 1012.4
20260506095959 53 4 10.4 14.8 0.00 0.00 0.00 77 1012.2
20260506095458 53 355 10.4 14.8 0.00 0.00 0.00 77 1012.2
20260506094959 53 0 14.8 14.8 0.00 0.00 0.00 76 1011.9
20260506094459 53 356 12.2 13.9 0.00 0.00 0.00 77 1012.0
20260506093958 54 1 10.4 12.2 0.00 0.00 0.00 77 1012.0
20260506093459 54 359 10.4 12.2 0.00 0.00 0.00 78 1011.7
20260506092958 54 15 7.8 14.8 0.00 0.00 0.00 78 1011.5
20260506092459 54 10 11.3 14.8 0.00 0.00 0.00 77 1011.4
20260506092029 54 17 11.3 13.9 0.00 0.00 0.00 77 1011.3
20260506091459 54 357 9.6 13.9 0.00 0.00 0.00 77 1011.4
20260506090959 54 12 11.3 13.0 0.00 0.00 0.00 76 1011.2
20260506090529 54 20 7.8 13.0 0.00 0.00 0.00 77 1011.3
20260506085958 54 14 12.2 13.9 0.00 0.00 0.00 77 1011.1
20260506085458 54 11 13.0 14.8 0.00 0.00 0.00 76 1011.1
20260506084958 54 8 7.0 14.8 0.00 0.00 0.00 77 1011.2
20260506084459 54 2 9.6 13.9 0.00 0.00 0.00 77 1011.2
20260506083459 54 9 7.8 13.0 0.00 0.00 0.00 78 1011.0
20260506082459 55 357 5.2 11.3 0.00 0.00 0.00 79 1011.1
20260506081959 55 13 9.6 11.3 0.00 0.00 0.00 78 1011.1
20260506081459 55 1 6.1 11.3 0.00 0.00 0.00 78 1011.1
20260506080459 55 2 10.4 12.2 0.00 0.00 0.00 79 1011.1
20260506073459 55 13 8.7 12.2 0.00 0.00 0.00 79 1011.1
20260506072959 55 18 12.2 12.2 0.00 0.00 0.00 78 1011.0
20260506072459 55 20 8.7 12.2 0.00 0.00 0.00 79 1010.9
20260506071959 55 16 7.8 13.0 0.00 0.00 0.00 80 1010.8
20260506071459 55 54 12.2 13.9 0.00 0.00 0.00 78 1010.3
20260506071000 55 53 9.6 15.6 0.00 0.00 0.00 79 1010.2
20260506070459 55 61 12.2 15.6 0.00 0.00 0.00 79 1010.2
20260506062459 55 23 9.6 13.0 0.00 0.00 0.00 80 1010.7
20260506061959 55 14 8.7 13.9 0.00 0.00 0.00 79 1010.8
20260506061459 56 25 12.2 15.6 0.00 0.00 0.00 80 1010.6
20260506060959 55 8 13.9 15.6 0.00 0.00 0.00 79 1010.4
20260506060459 56 35 12.2 15.6 0.00 0.00 0.00 80 1010.5
20260506050959 57 0 11.3 14.8 0.00 0.00 0.00 80 1010.8
20260506050459 57 7 12.2 14.8 0.00 0.00 0.00 80 1010.8
20260506044959 57 14 10.4 13.9 0.00 0.00 0.00 82 1010.8
20260506043459 57 12 11.3 15.6 0.00 0.00 0.00 83 1010.8
20260506042959 57 2 5.2 14.8 0.00 0.00 0.00 84 1010.9
20260506042500 57 9 11.3 14.8 0.00 0.00 0.00 83 1010.7
20260506041959 57 7 10.4 14.8 0.00 0.00 0.00 84 1010.8
20260506041459 58 0 14.8 14.8 0.00 0.00 0.00 83 1010.7
20260506040959 58 2 7.8 14.8 0.00 0.00 0.00 84 1010.8
20260506040459 58 356 8.7 13.0 0.00 0.00 0.00 85 1010.7
20260506035459 58 3 8.7 14.8 0.00 0.00 0.00 85 1010.6
20260506034959 58 13 10.4 17.4 0.00 0.00 0.00 84 1010.4
20260506034459 59 5 11.3 17.4 0.00 0.00 0.00 84 1010.4
20260506033459 59 0 12.2 16.5 0.00 0.00 0.00 84 1010.3
20260506032959 59 6 13.0 16.5 0.00 0.00 0.00 84 1010.3
20260506032459 59 7 15.6 16.5 0.00 0.00 0.00 83 1010.1
20260506031959 59 13 12.2 17.4 0.00 0.00 0.00 84 1009.8
20260506031459 59 11 13.9 17.4 0.00 0.00 0.00 83 1009.7
20260506030959 59 7 9.6 18.2 0.00 0.00 0.00 83 1009.8
20260506030459 59 4 13.0 18.2 0.00 0.00 0.00 83 1009.8
20260506030029 60 18 14.8 18.2 0.00 0.00 0.00 82 1009.7
20260506025459 60 10 11.3 15.6 0.00 0.00 0.00 82 1009.9
20260506024459 60 0 12.2 13.0 0.00 0.00 0.00 83 1009.8
20260506023959 60 2 9.6 13.0 0.00 0.00 0.00 83 1009.7
20260506023500 60 22 9.6 15.6 0.00 0.00 0.00 83 1009.3
20260506022959 60 9 13.0 15.6 0.00 0.00 0.00 83 1009.3
20260506022459 60 2 13.9 15.6 0.00 0.00 0.00 83 1009.2
20260506021959 61 7 10.4 17.4 0.00 0.00 0.00 83 1009.1
20260506021459 61 9 12.2 17.4 0.00 0.00 0.00 82 1009.0
20260506020959 61 19 12.2 15.6 0.00 0.00 0.00 82 1008.8
20260506020500 61 34 10.4 14.8 0.00 0.00 0.00 82 1008.8
20260506015459 62 34 8.7 17.4 0.00 0.00 0.00 81 1008.2
20260506015000 62 17 13.9 17.4 0.00 0.00 0.00 80 1008.1
20260506014459 63 28 7.8 17.4 0.00 0.00 0.00 81 1008.1
20260506013529 64 29 13.0 15.6 0.00 0.00 0.00 79 1007.6
20260506012500 64 16 9.6 13.9 0.00 0.00 0.00 78 1007.3
20260506011959 65 0 13.0 13.9 0.00 0.00 0.00 77 1007.1
20260506011529 65 359 11.3 13.9 0.00 0.00 0.00 77 1006.8
20260506010959 65 3 13.0 13.9 0.00 0.00 0.00 77 1006.7
20260506010459 65 7 12.2 13.9 0.00 0.00 0.00 77 1006.7
20260506010029 65 4 8.7 13.9 0.00 0.00 0.00 76 1006.7
20260506004959 66 354 8.7 13.9 0.00 0.00 0.00 75 1006.7
20260506004459 66 343 6.1 13.9 0.00 0.00 0.00 75 1006.5
20260506003959 66 341 9.6 16.5 0.00 0.00 0.00 75 1006.6
20260506003459 66 346 10.4 16.5 0.00 0.00 0.00 74 1006.8
20260506002959 66 358 7.8 15.6 0.00 0.00 0.00 75 1006.7
20260506002459 66 0 7.8 15.6 0.00 0.00 0.00 75 1006.6
20260506001959 67 8 12.2 14.8 0.00 0.00 0.00 74 1006.3
20260506001459 67 6 13.0 14.8 0.00 0.00 0.00 73 1006.3
20260506000959 68 355 10.4 14.8 0.00 0.00 0.00 73 1006.3
20260506000459 68 353 12.2 15.6 0.00 0.00 0.00 72 1006.4
20260505235959 68 356 11.3 15.6 0.00 0.00 0.00 71 1006.6
20260505235459 69 351 10.4 16.5 0.00 0.00 0.00 72 1006.7
20260505234959 69 4 14.8 16.5 0.00 0.00 0.00 71 1006.4
20260505234000 70 348 12.2 15.6 0.00 0.00 0.00 70 1006.4
20260505233459 70 342 6.1 19.1 0.00 0.00 0.00 69 1006.3
20260505232959 71 342 15.6 19.1 0.00 0.00 0.00 68 1006.5
20260505232500 71 345 9.6 14.8 0.00 0.00 0.00 69 1006.2
20260505231959 71 335 10.4 14.8 0.00 0.00 0.00 68 1006.0
20260505231459 71 334 11.3 15.6 0.00 0.00 0.00 70 1006.4
20260505230959 71 352 13.0 15.6 0.00 0.00 0.00 69 1005.5
20260505230459 72 3 12.2 15.6 0.00 0.00 0.00 69 1006.0
20260505230029 72 333 12.2 16.5 0.00 0.00 0.00 69 1006.2
20260505225500 73 347 13.0 18.2 0.00 0.00 0.00 68 1006.0
20260505225000 73 337 14.8 18.2 0.00 0.00 0.00 67 1005.8
20260505224459 74 337 12.2 16.5 0.00 0.00 0.00 66 1005.9
20260505223959 75 342 14.8 16.5 0.00 0.00 0.00 65 1005.8
20260505223459 76 346 12.2 13.9 0.00 0.00 0.00 63 1005.8
20260505223000 77 343 10.4 13.9 0.00 0.00 0.00 62 1005.6
20260505222459 77 327 12.2 17.4 0.00 0.00 0.00 62 1005.5
20260505221000 78 333 11.3 14.8 0.00 0.00 0.00 61 1005.2
20260505220459 78 322 8.7 14.8 0.00 0.00 0.00 61 1005.1
20260505215959 79 307 14.8 15.6 0.00 0.00 0.00 60 1005.0
20260505215500 80 312 11.3 15.6 0.00 0.00 0.00 59 1005.0
20260505215000 80 331 13.0 15.6 0.00 0.00 0.00 58 1004.9
20260505214500 81 337 11.3 14.8 0.00 0.00 0.00 59 1004.7
20260505213959 81 331 10.4 15.6 0.00 0.00 0.00 59 1004.9
20260505213459 80 333 9.6 15.6 0.00 0.00 0.00 58 1004.9
20260505212459 81 330 13.0 15.6 0.00 0.00 0.00 58 1004.9
20260505212000 82 321 9.6 15.6 0.00 0.00 0.00 56 1004.8
20260505211459 82 303 12.2 15.6 0.00 0.00 0.00 54 1004.9
20260505210959 82 330 12.2 16.5 0.00 0.00 0.00 53 1005.0
20260505210459 83 303 12.2 16.5 0.00 0.00 0.00 52 1005.0
20260505205959 83 327 11.3 15.6 0.00 0.00 0.00 54 1005.1
20260505205459 83 306 10.4 13.9 0.00 0.00 0.00 54 1005.0
20260505204459 84 314 8.7 15.6 0.00 0.00 0.00 49 1005.1
20260505204000 83 322 7.8 15.6 0.00 0.00 0.00 47 1005.3
20260505203459 83 315 10.4 14.8 0.00 0.00 0.00 45 1005.2
20260505202959 84 299 8.7 15.6 0.00 0.00 0.00 44 1005.2
20260505202459 82 296 12.2 16.5 0.00 0.00 0.00 43 1005.2
20260505201959 82 296 11.3 17.4 0.00 0.00 0.00 42 1005.2
20260505201459 83 286 12.2 17.4 0.00 0.00 0.00 41 1005.0
20260505201001 84 295 14.8 17.4 0.00 0.00 0.00 41 1005.0
20260505200459 84 310 14.8 22.6 0.00 0.00 0.00 42 1005.2
20260505194959 86 252 12.2 16.5 0.00 0.00 0.00 47 1005.0
20260505194459 86 263 14.8 16.5 0.00 0.00 0.00 46 1005.0
20260505194000 85 255 13.0 15.6 0.00 0.00 0.00 46 1005.0
20260505193459 86 254 11.3 15.6 0.00 0.00 0.00 48 1005.0
20260505192959 85 247 12.2 15.6 0.00 0.00 0.00 50 1005.0
20260505192000 86 273 15.6 20.0 0.00 0.00 0.00 50 1005.1
20260505191500 86 263 16.5 18.2 0.00 0.00 0.00 51 1004.8
20260505190959 85 253 13.9 18.2 0.00 0.00 0.00 52 1004.8
20260505185959 85 233 13.0 19.1 0.00 0.00 0.00 57 1004.9
20260505185459 85 252 13.0 17.4 0.00 0.00 0.00 57 1004.8
20260505185000 85 244 13.0 16.5 0.00 0.00 0.00 57 1004.8
20260505183500 85 247 12.2 17.4 0.00 0.00 0.00 54 1004.7
20260505183000 85 236 10.4 18.2 0.00 0.00 0.00 54 1004.8
20260505182000 84 244 16.5 19.1 0.00 0.00 0.00 55 1004.9
20260505181459 84 240 14.8 16.5 0.00 0.00 0.00 54 1004.9
20260505181001 84 238 12.2 18.2 0.00 0.00 0.00 56 1004.9
20260505175959 83 251 14.8 19.1 0.00 0.00 0.00 56 1004.9
20260505175500 83 225 15.6 20.9 0.00 0.00 0.00 56 1004.9
20260505175000 83 214 11.3 20.9 0.00 0.00 0.00 60 1005.0
20260505174459 83 230 12.2 18.2 0.00 0.00 0.00 64 1005.0
20260505173459 83 218 12.2 16.5 0.00 0.00 0.00 65 1005.1
20260505173000 81 213 16.5 20.0 0.00 0.00 0.00 65 1004.9
20260505172000 81 230 12.2 20.0 0.00 0.00 0.00 66 1004.8
20260505170459 79 198 9.6 15.6 0.00 0.00 0.00 71 1004.8
20260505170030 79 192 6.1 17.4 0.00 0.00 0.00 71 1004.9
20260505165459 78 186 7.8 17.4 0.00 0.00 0.00 72 1004.9
20260505164959 78 191 6.1 15.6 0.00 0.00 0.00 74 1005.0
20260505164459 77 213 10.4 15.6 0.00 0.00 0.00 74 1004.9
20260505163959 77 205 9.6 15.6 0.00 0.00 0.00 74 1004.8
20260505163459 76 207 13.0 13.0 0.00 0.00 0.00 74 1004.7
20260505162959 76 198 11.3 13.0 0.00 0.00 0.00 75 1004.7
20260505162530 76 185 8.7 13.9 0.00 0.00 0.00 76 1004.7
20260505161529 76 210 7.8 13.9 0.00 0.00 0.00 76 1004.6
20260505161005 76 212 9.6 15.6 0.00 0.00 0.00 77 1004.8
20260505160529 76 207 9.6 15.6 0.00 0.00 0.00 76 1004.7
20260505152959 75 222 11.3 21.7 0.00 0.00 0.00 76 1004.4
20260505152501 75 213 11.3 21.7 0.00 0.00 0.00 76 1004.4
20260505151501 75 196 11.3 14.8 0.00 0.00 0.00 76 1004.2
20260505150959 75 224 14.8 14.8 0.00 0.00 0.00 76 1004.2
20260505150459 75 211 10.4 18.2 0.00 0.00 0.00 78 1004.3
20260505140459 72 205 9.6 13.9 0.00 0.00 0.00 83 1004.1
20260505125000 69 190 7.8 9.6 0.00 0.00 0.00 90 1004.1
20260505124459 69 188 7.8 9.6 0.00 0.00 0.00 90 1004.1
20260505123500 69 194 7.0 9.6 0.00 0.00 0.00 91 1004.0
20260505122459 69 186 6.1 10.4 0.00 0.00 0.00 92 1003.7
20260505121500 68 192 7.0 12.2 0.00 0.00 0.00 92 1003.4
20260505121001 68 199 8.7 12.2 0.00 0.00 0.00 92 1003.3
20260505120501 68 193 8.7 13.0 0.00 0.00 0.00 92 1003.3
20260505120031 68 198 7.8 13.0 0.00 0.00 0.00 92 1003.3
20260505115531 68 182 7.8 11.3 0.00 0.00 0.00 92 1003.4
20260505115001 68 192 7.8 11.3 0.00 0.00 0.00 92 1003.4
20260505114500 68 212 11.3 12.2 0.00 0.00 0.00 92 1003.4
20260505114000 68 193 8.7 12.2 0.00 0.00 0.00 92 1003.3
20260505113530 68 199 6.1 10.4 0.00 0.00 0.00 92 1003.3